N6CTG Weather Reports


Display with metric or nautical units.
time (UTC)temp
F
wind
direction
speed
MPH
gust
MPH
rain 1hr
in
rain 24hr
in
rain mn
in
humidity
%
barometer
mb
20260508204503 83 237 3.0 7.0 0.00 0.00 0.00 45 1012.5
20260508203605 82 251 3.0 8.0 0.00 0.00 0.00 48 1012.6
20260508202724 82 249 3.0 8.0 0.00 0.00 0.00 49 1012.7
20260508201803 81 239 4.0 9.0 0.00 0.00 0.00 50 1012.7
20260508200903 81 242 4.0 9.0 0.00 0.00 0.00 53 1012.8
20260508200003 81 238 4.0 8.0 0.00 0.00 0.00 52 1012.9
20260508195403 80 259 3.0 8.0 0.00 0.00 0.00 53 1012.9
20260508194503 80 262 2.0 7.0 0.00 0.00 0.00 55 1013.1
20260508193603 80 237 3.0 8.0 0.00 0.00 0.00 56 1013.2
20260508192703 80 237 2.0 8.0 0.00 0.00 0.00 55 1013.3
20260508191804 79 258 3.0 7.0 0.00 0.00 0.00 57 1013.3
20260508190903 78 237 1.0 6.0 0.00 0.00 0.00 58 1013.5
20260508190003 77 248 2.0 6.0 0.00 0.00 0.00 58 1013.6
20260508185403 77 237 3.0 6.0 0.00 0.00 0.00 58 1013.7
20260508184524 77 238 1.0 5.0 0.00 0.00 0.00 59 1013.7
20260508183603 76 224 2.0 7.0 0.00 0.00 0.00 59 1013.8
20260508182703 76 223 1.0 6.0 0.00 0.00 0.00 60 1014.0
20260508181803 74 242 1.0 5.0 0.00 0.00 0.00 63 1014.0
20260508180924 73 227 1.0 5.0 0.00 0.00 0.00 65 1014.1
20260508180004 72 236 1.0 5.0 0.00 0.00 0.00 67 1014.1
20260508175404 71 237 1.0 5.0 0.00 0.00 0.00 68 1014.2
20260508174504 70 253 1.0 5.0 0.00 0.00 0.00 70 1014.2
20260508173603 69 235 1.0 4.0 0.00 0.00 0.00 72 1014.2
20260508172703 68 220 1.0 4.0 0.00 0.00 0.00 73 1014.2
20260508171803 66 231 2.0 4.0 0.00 0.00 0.00 76 1014.2
20260508170903 66 244 1.0 5.0 0.00 0.00 0.00 78 1014.3
20260508170005 65 236 1.0 4.0 0.00 0.00 0.00 79 1014.4
20260508165403 64 245 0.0 4.0 0.00 0.00 0.00 81 1014.5
20260508164504 63 223 1.0 6.0 0.00 0.00 0.00 81 1014.6
20260508163603 63 245 1.0 4.0 0.00 0.00 0.00 83 1014.6
20260508162703 62 233 1.0 4.0 0.00 0.00 0.00 82 1014.6
20260508161824 61 228 1.0 3.0 0.00 0.00 0.00 85 1014.7
20260508160903 60 230 1.0 5.0 0.00 0.00 0.00 86 1014.8
20260508160003 59 275 0.0 3.0 0.00 0.00 0.00 89 1014.7
20260508155403 59 240 0.0 2.0 0.00 0.00 0.00 89 1014.8
20260508154524 58 248 0.0 2.0 0.00 0.00 0.00 90 1014.8
20260508153603 58 3 0.0 1.0 0.00 0.00 0.00 92 1014.9
20260508152703 57 28 0.0 2.0 0.00 0.00 0.00 92 1014.9
20260508151803 57 0 0.0 0.0 0.00 0.00 0.00 93 1015.0
20260508150903 57 316 0.0 1.0 0.00 0.00 0.00 93 1015.1
20260508150004 56 0 0.0 0.0 0.00 0.00 0.00 93 1015.0
20260508145403 56 0 0.0 0.0 0.00 0.00 0.00 93 1015.1
20260508144503 56 0 0.0 0.0 0.00 0.00 0.00 93 1015.1
20260508143604 56 11 0.0 1.0 0.00 0.00 0.00 93 1015.0
20260508142724 56 0 0.0 0.0 0.00 0.00 0.00 93 1014.9
20260508141803 56 0 0.0 0.0 0.00 0.00 0.00 93 1014.9
20260508140924 56 0 0.0 0.0 0.00 0.00 0.00 93 1015.0
20260508140024 56 0 0.0 0.0 0.00 0.00 0.00 93 1015.0
20260508135424 56 0 0.0 0.0 0.00 0.00 0.00 93 1015.1
20260508134503 54 0 0.0 0.0 0.00 0.00 0.00 93 1015.0
20260508133624 54 0 0.0 0.0 0.00 0.00 0.00 93 1014.7
20260508132703 54 0 0.0 0.0 0.00 0.00 0.00 93 1014.7
20260508131824 54 0 0.0 0.0 0.00 0.00 0.00 93 1014.6
20260508130903 54 0 0.0 0.0 0.00 0.00 0.00 93 1014.4
20260508130003 54 0 0.0 0.0 0.00 0.00 0.00 93 1014.2
20260508125403 54 0 0.0 0.0 0.00 0.00 0.00 93 1014.0
20260508124524 54 0 0.0 0.0 0.00 0.00 0.00 93 1013.8
20260508123604 54 0 0.0 0.0 0.00 0.00 0.00 93 1013.7
20260508122724 54 0 0.0 0.0 0.00 0.00 0.00 93 1013.6
20260508121803 54 0 0.0 0.0 0.00 0.00 0.00 93 1013.4
20260508120903 54 0 0.0 0.0 0.00 0.00 0.00 93 1013.2
20260508120003 54 0 0.0 0.0 0.00 0.00 0.00 93 1013.1
20260508115403 54 0 0.0 0.0 0.00 0.00 0.00 93 1013.0
20260508114503 54 58 0.0 1.0 0.00 0.00 0.00 93 1012.9
20260508113624 56 58 0.0 3.0 0.00 0.00 0.00 93 1012.8
20260508112703 56 56 1.0 3.0 0.00 0.00 0.00 93 1012.9
20260508111803 56 44 0.0 2.0 0.00 0.00 0.00 93 1012.9
20260508110924 56 216 0.0 2.0 0.00 0.00 0.00 93 1012.9
20260508110003 56 160 0.0 3.0 0.00 0.00 0.00 93 1012.9
20260508105403 56 0 0.0 0.0 0.00 0.00 0.00 93 1013.0
20260508104524 56 0 0.0 0.0 0.00 0.00 0.00 93 1013.0
20260508103603 56 186 0.0 2.0 0.00 0.00 0.00 93 1013.0
20260508102703 56 224 0.0 2.0 0.00 0.00 0.00 93 1013.1
20260508101803 57 0 0.0 0.0 0.00 0.00 0.00 93 1013.1
20260508100924 56 228 0.0 2.0 0.00 0.00 0.00 93 1013.1
20260508100003 57 244 0.0 1.0 0.00 0.00 0.00 92 1012.9
20260508095403 57 0 0.0 0.0 0.00 0.00 0.00 92 1012.9
20260508094503 57 0 0.0 0.0 0.00 0.00 0.00 92 1012.9
20260508093604 57 0 0.0 0.0 0.00 0.00 0.00 92 1012.9
20260508092703 57 0 0.0 0.0 0.00 0.00 0.00 92 1012.9
20260508091803 57 0 0.0 0.0 0.00 0.00 0.00 92 1013.0
20260508090903 57 0 0.0 0.0 0.00 0.00 0.00 92 1013.0
20260508090005 57 0 0.0 0.0 0.00 0.00 0.00 92 1013.1
20260508085403 57 0 0.0 0.0 0.00 0.00 0.00 92 1013.0
20260508084503 57 0 0.0 0.0 0.00 0.00 0.00 91 1013.1
20260508083603 57 0 0.0 0.0 0.00 0.00 0.00 91 1013.2
20260508082703 57 151 0.0 1.0 0.00 0.00 0.00 91 1013.3
20260508081803 57 0 0.0 0.0 0.00 0.00 0.00 91 1013.4
20260508080903 57 145 0.0 2.0 0.00 0.00 0.00 91 1013.5
20260508080024 58 0 0.0 0.0 0.00 0.00 0.00 91 1013.5
20260508075424 57 0 0.0 0.0 0.00 0.00 0.00 91 1013.5
20260508074503 57 0 0.0 0.0 0.00 0.00 0.00 91 1013.5
20260508073604 57 0 0.0 0.0 0.00 0.00 0.00 91 1013.7
20260508072703 57 0 0.0 0.0 0.00 0.00 0.00 91 1013.9
20260508071803 57 0 0.0 0.0 0.00 0.00 0.00 91 1013.9
20260508070904 57 0 0.0 0.0 0.00 0.00 0.00 91 1013.9
20260508070003 57 0 0.0 0.0 0.00 0.00 0.00 90 1013.9
20260508065403 57 262 0.0 1.0 0.00 0.00 0.00 90 1013.9
20260508064503 57 0 0.0 0.0 0.00 0.00 0.00 90 1014.0
20260508063624 57 0 0.0 0.0 0.00 0.00 0.00 90 1014.0
20260508062703 57 0 0.0 0.0 0.00 0.00 0.00 90 1014.0
20260508061803 57 0 0.0 0.0 0.00 0.00 0.00 90 1013.9
20260508060903 57 0 0.0 0.0 0.00 0.00 0.00 89 1014.0
20260508060003 58 0 0.0 0.0 0.00 0.00 0.00 89 1013.9
20260508055403 58 0 0.0 0.0 0.00 0.00 0.00 89 1013.9
20260508054503 58 239 0.0 2.0 0.00 0.00 0.00 88 1013.9
20260508053624 58 213 0.0 3.0 0.00 0.00 0.00 88 1013.9
20260508052703 58 246 0.0 1.0 0.00 0.00 0.00 87 1013.9
20260508051803 59 0 0.0 0.0 0.00 0.00 0.00 87 1013.8
20260508050925 59 0 0.0 0.0 0.00 0.00 0.00 86 1013.8
20260508050003 59 0 0.0 0.0 0.00 0.00 0.00 86 1013.7
20260508045403 60 0 0.0 0.0 0.00 0.00 0.00 85 1013.8
20260508044503 60 0 0.0 0.0 0.00 0.00 0.00 85 1013.7
20260508043624 60 0 0.0 0.0 0.00 0.00 0.00 84 1013.6
20260508042703 61 0 0.0 0.0 0.00 0.00 0.00 83 1013.5
20260508041804 61 139 0.0 2.0 0.00 0.00 0.00 83 1013.3
20260508040924 62 156 0.0 2.0 0.00 0.00 0.00 82 1013.2
20260508040024 62 166 0.0 3.0 0.00 0.00 0.00 81 1013.1
20260508035403 63 162 0.0 2.0 0.00 0.00 0.00 81 1012.9
20260508034503 63 0 0.0 0.0 0.00 0.00 0.00 80 1012.8
20260508033604 64 0 0.0 0.0 0.00 0.00 0.00 79 1012.8
20260508032724 64 0 0.0 0.0 0.00 0.00 0.00 78 1012.7
20260508031804 64 240 0.0 3.0 0.00 0.00 0.00 77 1012.6
20260508030924 65 238 2.0 3.0 0.00 0.00 0.00 76 1012.4
20260508030005 66 242 1.0 3.0 0.00 0.00 0.00 75 1012.2
20260508025403 66 239 1.0 2.0 0.00 0.00 0.00 74 1012.2
20260508024503 67 236 0.0 3.0 0.00 0.00 0.00 73 1012.1
20260508023603 68 241 1.0 3.0 0.00 0.00 0.00 71 1012.1
20260508022703 69 239 1.0 3.0 0.00 0.00 0.00 70 1011.9
20260508021803 70 242 1.0 3.0 0.00 0.00 0.00 68 1011.8
20260508020903 71 241 1.0 4.0 0.00 0.00 0.00 66 1011.7
20260508020003 72 239 1.0 4.0 0.00 0.00 0.00 65 1011.7
20260508015403 72 239 2.0 4.0 0.00 0.00 0.00 65 1011.7
20260508014524 72 243 1.0 4.0 0.00 0.00 0.00 64 1011.7
20260508013603 72 235 3.0 4.0 0.00 0.00 0.00 65 1011.7
20260508012705 73 237 2.0 6.0 0.00 0.00 0.00 63 1011.8
20260508011804 73 248 1.0 4.0 0.00 0.00 0.00 63 1011.7
20260508010903 73 255 2.0 5.0 0.00 0.00 0.00 63 1011.7
20260508010003 73 248 3.0 6.0 0.00 0.00 0.00 64 1011.8
20260508005403 73 261 3.0 6.0 0.00 0.00 0.00 63 1011.7
20260508004503 74 247 3.0 7.0 0.00 0.00 0.00 62 1011.7
20260508003603 74 248 3.0 7.0 0.00 0.00 0.00 62 1011.5
20260508002703 75 252 3.0 7.0 0.00 0.00 0.00 60 1011.5
20260508001803 75 251 3.0 8.0 0.00 0.00 0.00 61 1011.6
20260508000924 75 246 3.0 7.0 0.00 0.00 0.00 60 1011.5
20260508000024 76 251 3.0 10.0 0.00 0.00 0.00 59 1011.4
20260507235403 76 248 4.0 10.0 0.00 0.00 0.00 59 1011.4
20260507234503 76 246 3.0 7.0 0.00 0.00 0.00 59 1011.4
20260507233624 76 251 3.0 7.0 0.00 0.00 0.00 59 1011.5
20260507232704 76 262 3.0 7.0 0.00 0.00 0.00 59 1011.4
20260507231803 76 253 3.0 8.0 0.00 0.00 0.00 58 1011.3
20260507230903 77 241 4.0 8.0 0.00 0.00 0.00 57 1011.4
20260507230005 77 243 5.0 9.0 0.00 0.00 0.00 59 1011.4
20260507225403 77 250 4.0 9.0 0.00 0.00 0.00 57 1011.4
20260507224504 77 249 4.0 9.0 0.00 0.00 0.00 56 1011.4
20260507223624 78 243 5.0 11.0 0.00 0.00 0.00 56 1011.4
20260507222724 78 238 5.0 10.0 0.00 0.00 0.00 56 1011.4
20260507221803 78 245 4.0 9.0 0.00 0.00 0.00 56 1011.4
20260507220903 78 251 4.0 9.0 0.00 0.00 0.00 55 1011.5
20260507220004 78 248 5.0 11.0 0.00 0.00 0.00 55 1011.6
20260507215403 79 251 5.0 11.0 0.00 0.00 0.00 54 1011.7
20260507214503 80 246 5.0 9.0 0.00 0.00 0.00 53 1011.8
20260507213603 80 245 5.0 10.0 0.00 0.00 0.00 53 1011.9
20260507212703 80 237 5.0 11.0 0.00 0.00 0.00 53 1011.9
20260507211804 80 239 5.0 10.0 0.00 0.00 0.00 52 1012.0
20260507210903 80 240 5.0 10.0 0.00 0.00 0.00 51 1012.1
20260507210003 81 248 3.0 7.0 0.00 0.00 0.00 49 1012.1
20260507205404 80 252 4.0 9.0 0.00 0.00 0.00 50 1012.2